Regional Weather Roundup
Issued by NWS Burlington, VT

Home | Current Version | Previous Version | Text Only | Print | Product List | Glossary On
Versions: 1 2 3 4 5 6 7 8 9 10 11 12 13 14 15 16 17 18 19 20 21 22 23 24 25 26 27 28 29 30 31 32 33 34 35 36 37 38 39 40 41 42 43 44 45 46 47 48 49 50
000
ASUS41 KBTV 180510
RWRBTV
VERMONT REGIONAL WEATHER ROUNDUP
NATIONAL WEATHER SERVICE BURLINGTON VT
100 AM EDT SAT APR 18 2015

NOTE: "FAIR" INDICATES FEW OR NO CLOUDS BELOW 12,000 FEET WITH NO
SIGNIFICANT WEATHER AND/OR OBSTRUCTIONS TO VISIBILITY.

* THESE REPORTS ARE NOT UNDER NWS QUALITY CONTROL AND/OR DO NOT
  REPORT WEATHER SUCH AS PRECIPITATION AND FOG.

VTZ001>019-180600-
_____VERMONT_____


CITY           SKY/WX    TMP DP  RH WIND       PRES   REMARKS
BURLINGTON     CLOUDY    47  37  68 CALM      29.93R
MONTPELIER     MOCLDY    46  36  68 CALM      29.96R
MORRISVILLE    MOCLDY    49  40  71 NW5       29.93R
ST. JOHNSBURY*   N/A     41  36  82 MISG      29.90R
LYNDONVILLE*     N/A     47  34  60 NW8       29.93R
MIDDLEBURY*    CLOUDY    47  40  74 CALM      29.92S
RUTLAND*       CLEAR     45  39  81 SE10      29.95R
SPRINGFIELD      N/A     40  38  93 CALM      29.94R
HIGHGATE*      MOCLDY    48  31  50 N7        29.95R
NEWPORT*         N/A     43  31  62 N7        29.95R
BENNINGTON     CLEAR     42  40  92 S5        29.97S

_____LAKE CHAMPLAIN_____


CITY           SKY/WX    TMP DP  RH WIND       PRES   REMARKS

$$

NYZ007-026>031-035-052-083-180600-
_____NORTHERN NEW YORK_____


CITY           SKY/WX    TMP DP  RH WIND       PRES   REMARKS
PLATTSBURGH    CLOUDY    53  41  63 NE13      29.94R
SARANAC LAKE   MOCLDY    33  31  92 CALM      29.94R
MASSENA        MOCLDY    45  42  89 CALM      29.96R
OGDENSBURG*    FOG       41  39  93 CALM      29.95R VSB 1
POTSDAM*       CLOUDY    46  46 100 CALM      29.96R
WATERTOWN      CLEAR     48  44  86 S6        29.96S FOG
FT DRUM        CLEAR     50  46  87 W7        29.95S
ALBANY         CLEAR     50  44  80 CALM      29.97S
GLENS FALLS    CLEAR     49  40  71 S3        29.95R

$$
NHZ002-005-011-180600-
_____NEW HAMPSHIRE_____


CITY           SKY/WX    TMP DP  RH WIND       PRES   REMARKS
LEBANON          N/A     39  36  89 CALM      29.92R
KEENE          CLEAR     43  39  87 CALM      29.96R
MT WASHINGTON  FOG       30  30 100 NW45G56     N/A  VSB 0   WCI  12
PLYMOUTH       MOCLDY    38  38 100 CALM      29.91R
WHITEFIELD     MOCLDY    36  33  89 CALM      29.90R

$$

_____REGIONAL QUEBEC LOCATIONS_____


CITY           SKY/WX    TMP DP  RH WIND       PRES   REMARKS
MONTREAL       PTCLDY    46  25  42 NE13      29.97R
QUEBEC CITY    CLEAR     37  27  65 VRB2      29.96R
SHERBROOKE     CLEAR     39  21  48 NW5       29.93R

_____REGIONAL ONTARIO LOCATIONS_____


CITY           SKY/WX    TMP DP  RH WIND       PRES   REMARKS
OTTAWA         PTCLDY    48  27  43 NE3       29.96R

______KEY______
VSB  - VISIBILITY IN MILES
WCI  - WIND CHILL INDEX
HX   - HEAT INDEX
$$
NNNN


USA.gov is the U.S. government's official web portal to all federal, state and local government web resources and services.